Regional Weather Roundup
Issued by NWS

Home | Current Version | Previous Version | Graphics & Text | Print | Product List | Glossary On
Versions: 1 2 3 4 5 6 7 8 9 10 11 12 13 14 15 16 17 18 19 20 21 22 23 24 25 26 27 28 29 30 31 32 33 34 35 36 37 38 39 40 41 42 43 44 45 46 47 48 49 50
000
ASUS43 KLMK 011410
RWRKY
KENTUCKY REGIONAL WEATHER ROUNDUP
NATIONAL WEATHER SERVICE LOUISVILLE KY
1000 AM EDT TUE SEP 01 2015

NOTE "FAIR" INDICATES FEW OR NO CLOUDS BELOW 12,000 FEET
WITH NO SIGNIFICANT WEATHER AND/OR OBSTRUCTIONS TO VISIBILITY.

KYZ001>023-026-027-061>063-070>075-011500-
WESTERN AND SOUTH CENTRAL KENTUCKY

CITY           SKY/WX    TMP DP  RH WIND       PRES   REMARKS
PADUCAH        SUNNY     77  68  73 S3        30.13R
HENDERSON      SUNNY     79  70  73 SW3       30.12S
OWENSBORO      SUNNY     77  69  76 S7        30.14S
HOPKINSVILLE   SUNNY     75  68  77 VRB1      30.14S
BOWLING GREEN  SUNNY     76  69  79 E3        30.16S
GLASGOW        SUNNY     75  67  76 CALM      30.17R
$$

KYZ024-025-028>034-038-045-046-053-011500-
NORTH CENTRAL KENTUCKY

CITY           SKY/WX    TMP DP  RH WIND       PRES   REMARKS
LOUISVILLE/SDF MOSUNNY   78  66  66 CALM      30.14F
LOUISVILLE/LOU SUNNY     78  67  68 CALM      30.15F
FORT KNOX      MOSUNNY   77  67  72 VRB2      30.15S
$$

KYZ035>037-039>044-047>052-055>060-089>105-011500-
NORTHEAST KENTUCKY

CITY           SKY/WX    TMP DP  RH WIND       PRES   REMARKS
LEXINGTON      SUNNY     79  67  66 CALM      30.18S
COVINGTON      MOSUNNY   79  67  66 CALM      30.16S
FRANKFORT      SUNNY     76  66  71 CALM      30.16S
$$

KYZ054-064>069-076>088-106>120-011500-
SOUTHEAST KENTUCKY

CITY           SKY/WX    TMP DP  RH WIND       PRES   REMARKS
JACKSON        SUNNY     77  67  71 CALM      30.20S
LONDON         SUNNY     75  65  70 CALM      30.19S
SOMERSET       MOSUNNY   72  68  88 CALM      30.20R
MIDDLESBORO    CLOUDY    66  65  97 CALM      30.21S
MONTICELLO     SUNNY     76  71  84 CALM      30.21R
$$




USA.gov is the U.S. government's official web portal to all federal, state and local government web resources and services.